Location: Julian California
(33.0790°N, 116.6010°W)
Time: 17:19:14
(UTC-07:00)

NOAA 11 - Pass Details

Date: 19 May 2017
Orbit: 833 x 850 km, 98.5° (Epoch: 22 September)

Event Time Altitude Azimuth Distance (km) Brightness Sun altitude
Exits shadow 21:48:12 47° 162° (SSE) 1,104 4.4 -22.5°
Maximum altitude 21:49:52 87° 77° (ENE) 844 4.1 -22.7°
Drops below altitude 10° 21:55:19 10° 348° (NNW) 2,452 7.4 -23.5°
Sets 21:57:41 0° 348° (NNW) 3,388 8.3 -23.9°
